TimeEDT,TemperatureF,Dew PointF,Humidity,Sea Level PressureIn,VisibilityMPH,Wind Direction,Wind SpeedMPH,Gust SpeedMPH,PrecipitationIn,Events,Conditions,WindDirDegrees,DateUTC
12:55 AM,42.4,32.2,67,30.35,10.0,Calm,Calm,-,N/A,,Clear,0,2013-04-18 04:55:00
1:55 AM,38.5,32.9,80,30.36,10.0,Calm,Calm,-,N/A,,Clear,0,2013-04-18 05:55:00
2:55 AM,36.5,35.1,95,30.35,10.0,NE,4.6,-,N/A,,Clear,50,2013-04-18 06:55:00
3:55 AM,35.8,31.5,84,30.37,10.0,Calm,Calm,-,N/A,,Clear,0,2013-04-18 07:55:00
4:55 AM,31.5,30.7,97,30.38,10.0,Calm,Calm,-,N/A,,Clear,0,2013-04-18 08:55:00
5:55 AM,31.6,31.1,98,30.37,10.0,NE,5.8,-,N/A,,Clear,50,2013-04-18 09:55:00
6:55 AM,35.8,32.4,87,30.39,10.0,NNE,3.5,-,N/A,,Clear,20,2013-04-18 10:55:00
7:55 AM,45.7,35.1,66,30.40,10.0,North,3.5,-,N/A,,Partly Cloudy,360,2013-04-18 11:55:00
8:55 AM,51.4,32.9,49,30.37,10.0,SE,6.9,-,N/A,,Clear,140,2013-04-18 12:55:00
9:55 AM,55.8,32.7,42,30.38,10.0,Calm,Calm,-,N/A,,Clear,0,2013-04-18 13:55:00
10:55 AM,60.4,30.4,32,30.37,10.0,South,11.5,19.6,N/A,,Mostly Cloudy,170,2013-04-18 14:55:00
11:55 AM,60.8,31.3,33,30.35,10.0,South,13.8,-,N/A,,Overcast,170,2013-04-18 15:55:00
12:55 PM,60.8,32.0,34,30.31,10.0,SSE,15.0,20.7,N/A,,Overcast,160,2013-04-18 16:55:00
1:55 PM,62.8,29.7,29,30.30,10.0,South,17.3,25.3,N/A,,Overcast,180,2013-04-18 17:55:00
2:55 PM,61.7,29.5,30,30.27,10.0,South,18.4,24.2,N/A,,Overcast,170,2013-04-18 18:55:00
3:55 PM,60.8,28.9,30,30.26,10.0,South,15.0,24.2,N/A,,Overcast,180,2013-04-18 19:55:00
4:55 PM,59.7,28.8,31,30.24,10.0,South,17.3,-,N/A,,Overcast,190,2013-04-18 20:55:00
5:55 PM,58.3,27.9,31,30.23,10.0,South,17.3,-,N/A,,Overcast,180,2013-04-18 21:55:00
6:55 PM,56.5,30.6,37,30.22,10.0,South,12.7,-,N/A,,Overcast,180,2013-04-18 22:55:00
7:55 PM,54.9,36.5,50,30.20,10.0,South,18.4,24.2,N/A,,Overcast,170,2013-04-18 23:55:00
8:34 PM,53.6,41.0,62,30.20,10.0,South,15.0,-,N/A,,Overcast,190,2013-04-19 00:34:00
8:55 PM,53.8,41.0,62,30.19,10.0,South,13.8,-,N/A,,Overcast,170,2013-04-19 00:55:00
9:55 PM,53.1,44.1,71,30.18,10.0,South,11.5,-,N/A,,Overcast,180,2013-04-19 01:55:00
10:37 PM,53.6,44.6,72,30.16,10.0,South,9.2,-,N/A,,Overcast,190,2013-04-19 02:37:00
10:55 PM,52.7,45.1,75,30.15,10.0,South,11.5,-,N/A,,Overcast,170,2013-04-19 02:55:00
11:55 PM,52.9,46.6,79,30.13,10.0,South,8.1,-,N/A,,Overcast,190,2013-04-19 03:55:00